カタログに戻る

STARLINK-32122

運用中通信VLEO
NORAD 60285·PAYLOAD·🇺🇸 United States

打ち上げ Jul 28, 2024 から Cape Canaveral Space Force Station

Loading…

次のパス (今後24時間)

TLE

最新Source: CelesTrak SupGP

元期: Sep 14, 2026, 21:07 UTC

1 60285C 24132H   26257.88034722  .00044631  00000+0  14353-2 0  2571
2 60285  53.1588 252.8492 0001318  91.3457  57.0858 15.31677151    18

AllMySatでSTARLINK-32122をリアルタイム追跡

Download on the App Store